Home > Time Zones > World Clock > Weather > Norway > Gran > Past weeks

Flag for Norway Weather past 2 weeks in Gran, Norway

Now
39 °F

Partly cloudy.


Feels Like: 31 °F
Forecast: 32 / 41 °F
Wind: 14 mph from Southwest

Location: Oslo Gardermoen Airport


UV Index: 0 (Low)

Visibility: N/A


Pressure: 29.86 "Hg

Humidity: 81%

Dew point: 34 °F

Location of GranLocation

Historic Weather in Gran

°F

Gran temperature yesterday

Maximum temperature yesterday: 50 °F (at 12:50 PM)
Minimum temperature yesterday: 27 °F (at 6:20 AM)
Average temperature yesterday: 41 °F

Past Weeks' High & Low Weather Summary

 TemperatureHumidityPressure
High55 °F (Apr 7, 3:50 PM)100% (Apr 5, 6:50 PM)30.30 "Hg (Apr 5, 6:50 PM)
Low23 °F (Apr 4, 6:20 AM)25% (Apr 15, 4:20 PM)29.30 "Hg (Apr 13, 4:20 AM)
Average40 °F71%29.83 "Hg
* Reported Apr 2 5:20 AM — Apr 17 5:50 AM, Gran, Weather by CustomWeather, © 2014

Note: Actual official high and low records may vary slightly from our data, if they occured in-between our weather recording intervals... More about our weather records

Advertising

Historic Weather Conditions — Data for Previous 24 hours

 ConditionsComfort  
Time TempWeatherWind HumidityBarometerVisibility
5:50 AM
Apr 17
39 °FPartly cloudy.14 mph81%29.86 "HgN/A
5:20 AM39 °FMostly cloudy.16 mph81%29.86 "HgN/A
4:50 AM39 °FPassing clouds.20 mph81%29.89 "HgN/A
3:20 AM43 °FClear.16 mph76%29.95 "Hg10 mi
2:50 AM43 °FPassing clouds.12 mph71%29.95 "HgN/A
2:20 AM43 °FClear.13 mph76%29.98 "Hg10 mi
1:50 AM45 °FPassing clouds.8 mph66%29.98 "HgN/A
1:20 AM43 °FPassing clouds.8 mph76%30.01 "HgN/A
12:50 AM45 °FClear.12 mph66%30.04 "Hg10 mi
12:20 AM45 °FClear.13 mph66%30.04 "Hg10 mi
11:50 PM
Apr 16
45 °FClear.10 mph66%30.04 "Hg10 mi
11:20 PM45 °FClear.10 mph71%30.04 "Hg10 mi
10:50 PM45 °FClear.10 mph71%30.07 "Hg10 mi
10:20 PM45 °FClear.13 mph71%30.07 "Hg10 mi
9:50 PM45 °FClear.15 mph66%30.07 "Hg10 mi
9:20 PM45 °FSunny.12 mph61%30.07 "Hg10 mi
8:50 PM45 °FSunny.9 mph57%30.07 "Hg10 mi
8:20 PM48 °FPassing clouds.14 mph50%30.07 "HgN/A
7:50 PM48 °FSunny.14 mph50%30.07 "Hg10 mi
7:20 PM48 °FSunny.13 mph50%30.09 "Hg10 mi
6:50 PM48 °FSunny.14 mph50%30.09 "Hg10 mi
6:20 PM50 °FSunny.12 mph43%30.09 "Hg10 mi
5:50 PM50 °FSunny.13 mph43%30.12 "Hg10 mi
5:20 PM50 °FSunny.13 mph40%30.12 "Hg10 mi
4:50 PM50 °FSunny.14 mph40%30.15 "Hg10 mi
4:20 PM50 °FSunny.15 mph37%30.15 "Hg10 mi
3:50 PM50 °FSunny.15 mph35%30.15 "Hg10 mi
3:20 PM50 °FPassing clouds.14 mph35%30.15 "HgN/A
2:50 PM50 °FSunny.15 mph37%30.15 "Hg10 mi
2:20 PM50 °FSunny.13 mph37%30.15 "Hg10 mi
1:50 PM50 °FPassing clouds.13 mph35%30.18 "HgN/A
1:20 PM50 °FSunny.10 mph35%30.18 "Hg10 mi
12:50 PM50 °FPassing clouds.10 mph35%30.18 "HgN/A
12:20 PM48 °FSunny.12 mph37%30.18 "Hg10 mi
11:50 AM46 °FSunny.14 mph40%30.18 "Hg10 mi
11:20 AM43 °FSunny.14 mph46%30.21 "Hg10 mi
10:50 AM41 °FSunny.12 mph53%30.21 "Hg10 mi
10:20 AM39 °FSunny.10 mph61%30.21 "Hg10 mi
9:50 AM37 °FSunny.8 mph65%30.24 "Hg10 mi
9:20 AM36 °FSunny.8 mph70%30.24 "Hg10 mi
8:50 AM34 °FSunny.6 mph75%30.24 "Hg10 mi
8:20 AM32 °FPassing clouds.3 mph75%30.24 "HgN/A
7:50 AM30 °FSunny.2 mph80%30.27 "Hg10 mi
7:20 AM30 °FSunny.1 mph75%30.27 "Hg10 mi
6:50 AM30 °FClear.No wind75%30.27 "Hg10 mi
6:20 AM27 °FClear.2 mph80%30.27 "Hg10 mi
Weather by CustomWeather, © 2014

See weather overview